Regional Weather Roundup
Issued by NWS

Home | Current Version | Previous Version | Graphics & Text | Print | Product List | Glossary On
Versions: 1 2 3 4 5 6 7 8 9 10 11 12 13 14 15 16 17 18 19 20 21 22 23 24 25 26 27 28 29 30 31 32 33 34 35 36 37 38 39 40 41 42 43 44 45 46 47 48 49 50
000
ASUS43 KTOP 272008
RWRKS

WEATHER ROUNDUP FOR KANSAS
NATIONAL WEATHER SERVICE GOODLAND KS
300 PM CDT SAT AUG 27 2016

NOTE:  "FAIR" INDICATES FEW OR NO CLOUDS BELOW 12,000 FEET WITH NO
SIGNIFICANT WEATHER AND/OR OBSTRUCTIONS TO VISIBILITY.

KSZ001>006-013>018-027>032-041>047-272100-
NORTHWEST KANSAS

CITY           SKY/WX    TMP DP  RH WIND       PRES   REMARKS
GOODLAND       SUNNY     82  58  43 SE10      30.04F
HAYS           MOSUNNY   84  63  48 SE7       30.01F
HILL CITY      SUNNY     83  65  54 S13G20    30.02F
RUSSELL        MOSUNNY   85  67  54 S14       30.00F
$$

KSZ061>065-074>080-084>089-272100-
SOUTHWEST KANSAS

CITY           SKY/WX    TMP DP  RH WIND       PRES   REMARKS
DODGE CITY     MOSUNNY   86  64  47 S17G23    30.02F
ELKHART          N/A     90  57  32 S8          N/A
GARDEN CITY    SUNNY     85  63  47 SE9G25    30.00F
GREAT BEND     MOSUNNY   84  66  54 S14       30.00F
LIBERAL        MOSUNNY   88  64  45 S12G21    30.01F
PRATT          MOSUNNY   84  59  42 SE8       30.02F
$$

KSZ066>073-081>083-090>101-272100-
SOUTHEAST KANSAS

CITY           SKY/WX    TMP DP  RH WIND       PRES   REMARKS
CHANUTE        MOSUNNY   89  72  56 SW6       30.00F HX  96
COFFEYVILLE    MOSUNNY   92  70  48 VRB6      29.99F HX  97
HUTCHINSON     MOSUNNY   88  70  55 S9        30.01F
MEDICINE LODGE   N/A     88  65  46 S7        29.99F
NEWTON         SUNNY     85  71  63 VRB5      30.02F
PARSONS        MOSUNNY   91  69  48 MISG      30.01F HX  96
WICHITA INTL   MOSUNNY   88  70  55 S10       30.00F
WICHITA JABRA  MOSUNNY   86  71  60 SE5       30.01F
WICHITA MCCONL MOSUNNY   87  71  58 S9        30.00F
WINFIELD       MOSUNNY   88  72  58 S8        30.01F
$$

KSZ007>012-019>026-033>040-048>060-102>105-272100-
NORTHEAST KANSAS

CITY           SKY/WX    TMP DP  RH WIND       PRES   REMARKS
CONCORDIA      SUNNY     82  67  60 SE7       30.02F
EMPORIA        MOSUNNY   85  71  63 S7        30.01F
LAWRENCE       MOSUNNY   86  72  62 VRB3      30.00F
MANHATTAN      CLOUDY    84  69  60 CALM      30.01F
MARYSVILLE     SUNNY     82  70  65 SW6       30.02F
OLATHE IND     MOSUNNY   86  72  62 S7        30.02F
OLATHE EXE     PTSUNNY   84  72  67 S10       30.02F
SALINA         MOSUNNY   86  66  51 S5        30.01F
TOPEKA BILLARD SUNNY     85  72  65 SE3       30.00F
TOPEKA FORBES  PTSUNNY   85  72  65 CALM      30.01F
$$




USA.gov is the U.S. government's official web portal to all federal, state and local government web resources and services.